ANDOYA/ANDENES(AFB) current weather conditions

sailwx.info

Wind from 020 at 29 knots

Air temperature -2.0° C
Visibility: greater than 1.6 NM
Dewpoint -3.0° C
Present weather: Snow showers.

Last reported at 2017-Feb-24 04:20 UTC.
Time now 2017-Feb-24 05:58 UTC

Location: N 69°18' E 016°09'.
View on Google Maps.

See reports from other nearby stations

  
Tides and Currents Weather Stations Pressure Air Temp Water Temp Dewpoint Dewpoint Depression Visibility Wind Speed Wind Dir Waves Ship Positions
date/time (UTC)wind fromknots sea level pressurealtimeterstation pressurevisibilityair tempwater tempwave heightnotes
2017-Feb-24 04:20 020 29 1.6-2.0 Snow showers.
2017-Feb-24 03:50 010 31 gusting 42 -2.0
2017-Feb-24 03:20 020 36 -2.0
2017-Feb-24 02:50 010 31 -2.0
2017-Feb-24 02:20 010 28 gusting 41 -2.0
2017-Feb-24 01:50 360 28 gusting 40 -2.0
2017-Feb-24 01:20 010 32 gusting 44 -1.0
2017-Feb-24 00:50 010 25 gusting 38 -1.0
2017-Feb-24 00:20 360 27 gusting 38 -1.0
2017-Feb-23 23:50 010 25 gusting 38 -1.0
2017-Feb-23 23:20 010 28 gusting 40 -1.0
2017-Feb-23 22:50 360 22 -3.0
2017-Feb-23 22:20 010 25 gusting 49 0.8-1.0 Light freezing rain.
2017-Feb-23 21:50 010 21 gusting 32 5.4-2.0 Precipitation.
2017-Feb-23 21:20 030 17 2.7-3.0 Light snow showers.
2017-Feb-23 20:50 010 20 1.1-3.0 Snow showers. Blowing snow.
2017-Feb-23 20:20 010 20 0.8-3.0 Snow showers. Blowing snow.
2017-Feb-23 19:50 030 20 0.4-3.0 Snow showers.
2017-Feb-23 19:20 020 21 1.1-2.0 Snow showers.
2017-Feb-23 18:50 010 17 5.4-1.0
2017-Feb-23 18:20 010 15 5.4-2.0 Showers in the vicinity.
2017-Feb-23 17:50 360 19 5.4-2.0
2017-Feb-23 17:20 020 25 gusting 35 5.4-2.0 Showers in the vicinity.
2017-Feb-23 16:50 020 20 gusting 32 5.4-1.0 Showers in the vicinity.
2017-Feb-23 16:20 020 22 5.4-2.0 Showers in the vicinity.
2017-Feb-23 15:50 040 26 2.1-2.0 Snow showers.
2017-Feb-23 15:20 010 15 4.3-2.0 Showers in the vicinity.
2017-Feb-23 14:50 360 21 1.8-3.0 Snow showers.
2017-Feb-23 14:20 010 17 5.4-3.0 Showers in the vicinity.
2017-Feb-23 13:50 010 24 gusting 34 0.1-3.0 Snow showers.
2017-Feb-23 13:20 030 17 5.4-2.0 Showers in the vicinity.
2017-Feb-23 12:50 010 19 5.4-2.0 Showers in the vicinity.
2017-Feb-23 12:20 010 17 3.2-2.0 Showers in the vicinity.
2017-Feb-23 11:50 020 22 1.3-2.0 Showers in the vicinity.
2017-Feb-23 11:20 020 15 gusting 27 2.4-2.0 Light snow showers. Hail.
2017-Feb-23 10:50 360 17 5.4-2.0 Light snow showers.
2017-Feb-23 10:20 010 21 2.2-1.0 Showers in the vicinity.
2017-Feb-23 09:50 360 17 5.4-2.0 Showers in the vicinity.
2017-Feb-23 09:20 020 20 5.4-1.0 Light snow showers.
2017-Feb-23 08:50 020 24 1.1-2.0 Showers in the vicinity.
2017-Feb-23 08:20 220 2 5.4-4.0 Showers in the vicinity.
2017-Feb-23 07:50 190 5 5.4-5.0
2017-Feb-23 07:20 210 6 5.4-5.0 Showers in the vicinity.
2017-Feb-23 06:50 170 6 5.4-5.0 Light snow showers.
2017-Feb-23 06:20 200 5 3.2-5.0 Light snow showers.
2017-Feb-23 05:50 190 4 5.4-6.0
2017-Feb-23 05:20 5.4-6.0
2017-Feb-23 04:50 230 4 5.4-8.0
2017-Feb-23 04:20 230 2 5.4-8.0
2017-Feb-23 03:50 080 6 5.4-8.0
2017-Feb-23 03:20 070 7 5.4-6.0
2017-Feb-23 02:50 070 7 5.4-6.0
2017-Feb-23 02:20 060 9 5.4-5.0
2017-Feb-23 01:50 050 7 5.4-5.0
2017-Feb-23 01:20 070 6 5.4-5.0
2017-Feb-23 00:50 090 9 5.4-5.0
2017-Feb-23 00:20 040 14 5.4-4.0
2017-Feb-22 23:50 040 9 5.4-5.0
2017-Feb-22 23:20 060 13 5.4-5.0
2017-Feb-22 22:50 100 11 5.4-5.0
2017-Feb-22 22:20 050 13 5.4-5.0
2017-Feb-22 21:50 060 14 5.4-5.0
2017-Feb-22 21:20 060 8 5.4-5.0 Light freezing rain.
2017-Feb-22 20:50 070 15 5.4-5.0
2017-Feb-22 20:20 020 13 5.4-5.0
2017-Feb-22 19:50 050 14 2.7-5.0 Light snow showers.
2017-Feb-22 19:20 040 18 4.3-5.0 Light snow showers.
2017-Feb-22 18:50 010 8 5.4-5.0
2017-Feb-22 18:20 010 6 5.4-5.0
2017-Feb-22 17:50 360 6 5.4-5.0 Showers in the vicinity.
2017-Feb-22 17:20 010 6 5.4-6.0 Showers in the vicinity.
2017-Feb-22 16:50 010 6 5.4-6.0 Showers in the vicinity.
2017-Feb-22 16:20 030 6 5.4-6.0 Showers in the vicinity.
2017-Feb-22 15:50 020 9 5.4-6.0 Showers in the vicinity.
2017-Feb-22 15:20 360 8 1.7-5.0 Light snow showers.
2017-Feb-22 14:50 350 6 5.4-5.0 Showers in the vicinity.
2017-Feb-22 14:20 360 6 5.4-5.0 Showers in the vicinity.
2017-Feb-22 13:50 010 7 5.4-5.0 Showers in the vicinity.
2017-Feb-22 13:20 360 7 5.4-5.0 Showers in the vicinity.
2017-Feb-22 12:50 010 9 5.4-5.0 Showers in the vicinity.
2017-Feb-22 12:20 350 6 5.4-5.0 Light snow showers.
2017-Feb-22 11:50 010 5 5.4-5.0 Showers in the vicinity.
2017-Feb-22 11:20 030 6 2.7-5.0 Light snow showers.
2017-Feb-22 10:50 350 7 0.9-6.0 Snow showers.
2017-Feb-22 10:20 240 5 4.3-6.0 Light snow showers.
2017-Feb-22 09:50 200 4 5.4-6.0 Showers in the vicinity.
2017-Feb-22 09:20 3.2-6.0 Light snow showers.
2017-Feb-22 08:50 350 2 0.8-6.0 Snow showers.
2017-Feb-22 08:20 350 6 5.4-7.0 Snow showers.
2017-Feb-22 07:50 5.4-10.0 Light snow showers.
2017-Feb-22 07:20 230 5 5.4-10.0 Showers in the vicinity.
2017-Feb-22 06:50 200 6 5.4-7.0 Showers in the vicinity.
2017-Feb-22 06:20 180 6 2.7-7.0 Light snow showers.
2017-Feb-22 05:50 280 2 0.3-7.0 Snow showers.
2017-Feb-22 05:20 250 6 4.3-8.0 Snow showers.